| time (UTC) | temp F | wind direction | speed knots | gust knots | rain 1hr in | rain 24hr in | rain mn in | humidity % | barometer mb |
| 20260903073459 | 80 | 263 | 2.6 | 2.6 | 0.00 | 0.00 | 0.00 | 80 | 1018.7 |
| 20260903072954 | 0 | 0.0 | 0.0 | 0.00 | 0.00 | 0.00 | 1018.5 | ||
| 20260903072450 | 0 | 0.0 | 0.0 | 0.00 | 0.00 | 0.00 | 1018.4 | ||
| 20260903071947 | 0 | 0.0 | 0.0 | 0.00 | 0.00 | 0.00 | 1018.5 | ||
| 20260903071442 | 79 | 256 | 2.6 | 2.6 | 0.00 | 0.00 | 0.00 | 81 | 1018.4 |
| 20260903070937 | 79 | 256 | 2.6 | 2.6 | 0.00 | 0.00 | 0.00 | 81 | 1018.4 |
| 20260903070432 | 0 | 0.0 | 0.0 | 0.00 | 0.00 | 0.00 | 1018.6 | ||
| 20260903065927 | 0 | 0.0 | 0.0 | 0.00 | 0.00 | 0.00 | 1018.5 | ||
| 20260903065426 | 0 | 0.0 | 0.0 | 0.00 | 0.00 | 0.00 | 1018.7 | ||
| 20260903064925 | 0 | 0.0 | 0.0 | 0.00 | 0.00 | 0.00 | 1018.6 | ||
| 20260903064421 | 80 | 288 | 2.6 | 3.5 | 0.00 | 0.00 | 0.00 | 80 | 1018.4 |
| 20260903063917 | 80 | 288 | 2.6 | 3.5 | 0.00 | 0.00 | 0.00 | 80 | 1018.7 |
| 20260903063412 | 0 | 0.0 | 0.0 | 0.00 | 0.00 | 0.00 | 1018.7 | ||
| 20260903062907 | 0 | 0.0 | 0.0 | 0.00 | 0.00 | 0.00 | 1018.5 | ||
| 20260903062402 | 80 | 258 | 1.7 | 1.7 | 0.00 | 0.00 | 0.00 | 80 | 1018.8 |
| 20260903061858 | 80 | 258 | 1.7 | 1.7 | 0.00 | 0.00 | 0.00 | 80 | 1018.6 |
| 20260903061357 | 0 | 0.0 | 0.0 | 0.00 | 0.00 | 0.00 | 1018.7 | ||
| 20260903060853 | 80 | 26 | 0.9 | 1.7 | 0.00 | 0.00 | 0.00 | 80 | 1018.7 |
| 20260903060352 | 80 | 26 | 0.9 | 1.7 | 0.00 | 0.00 | 0.00 | 80 | 1018.9 |
| 20260903055850 | 80 | 195 | 2.6 | 2.6 | 0.00 | 0.00 | 0.00 | 80 | 1018.8 |
| 20260903055348 | 80 | 196 | 1.7 | 2.6 | 0.00 | 0.00 | 0.00 | 80 | 1018.8 |
| 20260903054843 | 80 | 202 | 1.7 | 2.6 | 0.00 | 0.00 | 0.00 | 79 | 1018.7 |
| 20260903054338 | 0 | 0.0 | 0.0 | 0.00 | 0.00 | 0.00 | 1018.9 | ||
| 20260903053835 | 80 | 194 | 3.5 | 6.1 | 0.00 | 0.00 | 0.00 | 79 | 1018.8 |
| 20260903053335 | 80 | 194 | 3.5 | 6.1 | 0.00 | 0.00 | 0.00 | 79 | 1018.7 |
| 20260903052831 | 0 | 0.0 | 0.0 | 0.00 | 0.00 | 0.00 | 1018.7 | ||
| 20260903052326 | 0 | 0.0 | 0.0 | 0.00 | 0.00 | 0.00 | 1018.7 | ||
| 20260903051822 | 0 | 0.0 | 0.0 | 0.00 | 0.00 | 0.00 | 1018.6 | ||
| 20260903051317 | 81 | 200 | 1.7 | 2.6 | 0.00 | 0.00 | 0.00 | 78 | 1018.4 |
| 20260903050812 | 81 | 200 | 1.7 | 2.6 | 0.00 | 0.00 | 0.00 | 78 | 1018.6 |
| 20260903050311 | 0 | 0.0 | 0.0 | 0.00 | 0.00 | 0.00 | 1018.5 | ||
| 20260903045806 | 0 | 0.0 | 0.0 | 0.00 | 0.00 | 0.00 | 1018.6 | ||
| 20260903045306 | 81 | 270 | 2.6 | 3.5 | 0.00 | 0.00 | 0.00 | 77 | 1018.5 |
| 20260903044758 | 81 | 270 | 2.6 | 3.5 | 0.00 | 0.00 | 0.00 | 77 | 1018.5 |
| 20260903044253 | 82 | 213 | 1.7 | 2.6 | 0.00 | 0.00 | 0.00 | 77 | 1018.5 |
| 20260903043750 | 82 | 219 | 3.5 | 3.5 | 0.00 | 0.00 | 0.00 | 76 | 1018.3 |
| 20260903043250 | 82 | 219 | 3.5 | 3.5 | 0.00 | 0.00 | 0.00 | 76 | 1018.3 |
| 20260903042749 | 82 | 213 | 1.7 | 1.7 | 0.00 | 0.00 | 0.00 | 76 | 1018.3 |
| 20260903042244 | 82 | 257 | 1.7 | 2.6 | 0.00 | 0.00 | 0.00 | 76 | 1018.2 |
| 20260903041740 | 82 | 218 | 4.3 | 5.2 | 0.00 | 0.00 | 0.00 | 76 | 1018.3 |
| 20260903041237 | 82 | 302 | 1.7 | 1.7 | 0.00 | 0.00 | 0.00 | 76 | 1018.1 |
| 20260903040731 | 0 | 0.0 | 0.0 | 0.00 | 0.00 | 0.00 | 1018.0 | ||
| 20260903040226 | 0 | 0.0 | 0.0 | 0.00 | 0.00 | 0.00 | 1018.1 | ||
| 20260903035722 | 81 | 206 | 1.7 | 1.7 | 0.00 | 0.00 | 0.00 | 77 | 1018.0 |
| 20260903035218 | 81 | 206 | 1.7 | 1.7 | 0.00 | 0.00 | 0.00 | 77 | 1018.0 |
| 20260903034717 | 81 | 199 | 0.9 | 1.7 | 0.00 | 0.00 | 0.00 | 77 | 1017.9 |
| 20260903034212 | 81 | 292 | 3.5 | 5.2 | 0.00 | 0.00 | 0.00 | 77 | 1017.8 |
| 20260903033708 | 81 | 207 | 1.7 | 3.5 | 0.00 | 0.00 | 0.00 | 78 | 1017.7 |
| 20260903033208 | 81 | 89 | 0.9 | 2.6 | 0.00 | 0.00 | 0.00 | 78 | 1017.8 |
| 20260903032702 | 81 | 267 | 2.6 | 3.5 | 0.00 | 0.00 | 0.00 | 78 | 1017.9 |
| 20260903032158 | 81 | 126 | 0.9 | 3.5 | 0.00 | 0.00 | 0.00 | 78 | 1018.0 |
| 20260903031654 | 81 | 184 | 0.9 | 2.6 | 0.00 | 0.00 | 0.00 | 79 | 1018.1 |
| 20260903031153 | 81 | 270 | 0.9 | 5.2 | 0.00 | 0.00 | 0.00 | 78 | 1018.3 |
| 20260903030649 | 81 | 190 | 1.7 | 5.2 | 0.00 | 0.00 | 0.00 | 78 | 1018.2 |
| 20260903030144 | 81 | 169 | 0.9 | 1.7 | 0.00 | 0.00 | 0.00 | 78 | 1018.2 |
| 20260903025639 | 81 | 309 | 0.0 | 1.7 | 0.00 | 0.00 | 0.00 | 78 | 1018.3 |
| 20260903025135 | 81 | 84 | 0.0 | 0.0 | 0.00 | 0.00 | 0.00 | 79 | 1018.3 |
| 20260903024630 | 81 | 131 | 1.7 | 3.5 | 0.00 | 0.00 | 0.00 | 78 | 1018.5 |
| 20260903024124 | 81 | 111 | 0.9 | 1.7 | 0.00 | 0.00 | 0.00 | 78 | 1018.7 |
| 20260903023620 | 81 | 261 | 1.7 | 3.5 | 0.00 | 0.00 | 0.00 | 78 | 1018.6 |
| 20260903023115 | 81 | 197 | 0.9 | 1.7 | 0.00 | 0.00 | 0.00 | 78 | 1018.6 |
| 20260903022615 | 81 | 259 | 1.7 | 2.6 | 0.00 | 0.00 | 0.00 | 78 | 1018.7 |
| 20260903022114 | 81 | 224 | 0.9 | 2.6 | 0.00 | 0.00 | 0.00 | 77 | 1018.8 |
| 20260903021608 | 81 | 115 | 0.0 | 3.5 | 0.00 | 0.00 | 0.00 | 77 | 1018.7 |
| 20260903021108 | 81 | 217 | 0.9 | 2.6 | 0.00 | 0.00 | 0.00 | 77 | 1018.8 |
| 20260903020604 | 81 | 162 | 0.0 | 0.9 | 0.00 | 0.00 | 0.00 | 77 | 1018.9 |
| 20260903020104 | 81 | 163 | 0.0 | 0.9 | 0.00 | 0.00 | 0.00 | 77 | 1018.7 |
| 20260903015559 | 81 | 193 | 0.9 | 1.7 | 0.00 | 0.00 | 0.00 | 77 | 1018.9 |
| 20260903015054 | 81 | 240 | 0.9 | 2.6 | 0.00 | 0.00 | 0.00 | 77 | 1018.7 |
| 20260903014554 | 81 | 159 | 0.0 | 1.7 | 0.00 | 0.00 | 0.00 | 76 | 1018.7 |
| 20260903014044 | 81 | 237 | 1.7 | 2.6 | 0.00 | 0.00 | 0.00 | 76 | 1019.0 |
| 20260903013543 | 81 | 262 | 0.0 | 1.7 | 0.00 | 0.00 | 0.00 | 76 | 1018.7 |
| 20260903013038 | 82 | 198 | 0.9 | 1.7 | 0.00 | 0.00 | 0.00 | 76 | 1018.7 |
| 20260903012531 | 82 | 181 | 0.9 | 0.9 | 0.00 | 0.00 | 0.00 | 75 | 1018.7 |
| 20260903012030 | 82 | 218 | 0.9 | 2.6 | 0.00 | 0.00 | 0.00 | 75 | 1018.6 |
| 20260903011525 | 82 | 281 | 1.7 | 1.7 | 0.00 | 0.00 | 0.00 | 75 | 1018.6 |
| 20260903011020 | 82 | 203 | 0.0 | 0.9 | 0.00 | 0.00 | 0.00 | 75 | 1018.7 |
| 20260903010515 | 82 | 313 | 0.0 | 0.9 | 0.00 | 0.00 | 0.00 | 74 | 1018.5 |
| 20260903010014 | 82 | 272 | 0.9 | 0.9 | 0.00 | 0.00 | 0.00 | 74 | 1018.6 |
| 20260903005514 | 82 | 192 | 1.7 | 1.7 | 0.00 | 0.00 | 0.00 | 74 | 1018.5 |
| 20260903005009 | 82 | 174 | 0.9 | 0.9 | 0.00 | 0.00 | 0.00 | 73 | 1018.7 |
| 20260903004504 | 83 | 239 | 0.9 | 0.9 | 0.00 | 0.00 | 0.00 | 74 | 1018.3 |
| 20260903004000 | 82 | 177 | 0.9 | 1.7 | 0.00 | 0.00 | 0.00 | 73 | 1018.3 |
| 20260903003454 | 83 | 235 | 0.9 | 1.7 | 0.00 | 0.00 | 0.00 | 73 | 1018.2 |
| 20260903002949 | 83 | 209 | 1.7 | 2.6 | 0.00 | 0.00 | 0.00 | 72 | 1018.2 |
| 20260903002444 | 83 | 249 | 0.0 | 0.9 | 0.00 | 0.00 | 0.00 | 72 | 1018.3 |
| 20260903001943 | 83 | 295 | 0.0 | 0.0 | 0.00 | 0.00 | 0.00 | 72 | 1018.2 |
| 20260903001444 | 83 | 136 | 0.9 | 1.7 | 0.00 | 0.00 | 0.00 | 71 | 1018.4 |
| 20260903000938 | 83 | 192 | 0.9 | 2.6 | 0.00 | 0.00 | 0.00 | 71 | 1018.3 |
| 20260903000434 | 84 | 193 | 0.9 | 1.7 | 0.00 | 0.00 | 0.00 | 71 | 1018.3 |
| 20260902235931 | 84 | 290 | 0.9 | 1.7 | 0.00 | 0.00 | 0.00 | 71 | 1018.2 |
| 20260902235427 | 84 | 286 | 0.0 | 0.9 | 0.00 | 0.00 | 0.00 | 71 | 1018.3 |
| 20260902234926 | 85 | 191 | 0.0 | 1.7 | 0.00 | 0.00 | 0.00 | 71 | 1018.3 |
| 20260902234421 | 85 | 203 | 2.6 | 2.6 | 0.00 | 0.00 | 0.00 | 71 | 1018.4 |
| 20260902233920 | 85 | 139 | 0.9 | 0.9 | 0.00 | 0.00 | 0.00 | 71 | 1018.2 |
| 20260902233415 | 85 | 247 | 0.9 | 1.7 | 0.00 | 0.00 | 0.00 | 71 | 1018.2 |
| 20260902232914 | 86 | 231 | 1.7 | 2.6 | 0.00 | 0.00 | 0.00 | 70 | 1018.1 |
| 20260902232409 | 86 | 230 | 0.0 | 0.9 | 0.00 | 0.00 | 0.00 | 70 | 1018.0 |
| 20260902231908 | 86 | 248 | 0.9 | 1.7 | 0.00 | 0.00 | 0.00 | 70 | 1018.1 |
| 20260902231403 | 87 | 316 | 0.9 | 2.6 | 0.00 | 0.00 | 0.00 | 69 | 1018.3 |
| 20260902230853 | 87 | 244 | 2.6 | 2.6 | 0.00 | 0.00 | 0.00 | 69 | 1018.2 |
| 20260902230352 | 87 | 282 | 2.6 | 3.5 | 0.00 | 0.00 | 0.00 | 68 | 1018.1 |
| 20260902225851 | 87 | 269 | 3.5 | 5.2 | 0.00 | 0.00 | 0.00 | 68 | 1018.2 |
| 20260902225347 | 87 | 239 | 0.0 | 3.5 | 0.00 | 0.00 | 0.00 | 68 | 1018.2 |
| 20260902224845 | 87 | 190 | 0.0 | 6.1 | 0.00 | 0.00 | 0.00 | 67 | 1018.1 |
| 20260902224340 | 87 | 168 | 0.0 | 2.6 | 0.00 | 0.00 | 0.00 | 67 | 1018.2 |
| 20260902223837 | 88 | 228 | 1.7 | 2.6 | 0.00 | 0.00 | 0.00 | 66 | 1018.2 |
| 20260902223331 | 88 | 282 | 3.5 | 5.2 | 0.00 | 0.00 | 0.00 | 66 | 1018.3 |
| 20260902222831 | 88 | 209 | 1.7 | 5.2 | 0.00 | 0.00 | 0.00 | 66 | 1018.3 |
| 20260902222329 | 88 | 132 | 0.0 | 2.6 | 0.00 | 0.00 | 0.00 | 66 | 1018.2 |
| 20260902221824 | 89 | 210 | 1.7 | 5.2 | 0.00 | 0.00 | 0.00 | 65 | 1018.2 |
| 20260902221323 | 90 | 200 | 0.0 | 0.9 | 0.00 | 0.00 | 0.00 | 64 | 1018.3 |
| 20260902220819 | 90 | 196 | 1.7 | 6.1 | 0.00 | 0.00 | 0.00 | 63 | 1018.2 |
| 20260902220319 | 91 | 178 | 3.5 | 5.2 | 0.00 | 0.00 | 0.00 | 61 | 1018.3 |
| 20260902215815 | 91 | 271 | 1.7 | 2.6 | 0.00 | 0.00 | 0.00 | 61 | 1018.2 |
| 20260902215314 | 90 | 273 | 1.7 | 3.5 | 0.00 | 0.00 | 0.00 | 61 | 1018.5 |
| 20260902214811 | 90 | 224 | 1.7 | 6.1 | 0.00 | 0.00 | 0.00 | 63 | 1018.4 |
| 20260902214309 | 91 | 208 | 1.7 | 5.2 | 0.00 | 0.00 | 0.00 | 61 | 1018.2 |
| 20260902213805 | 91 | 255 | 4.3 | 7.0 | 0.00 | 0.00 | 0.00 | 60 | 1018.5 |
| 20260902213300 | 91 | 260 | 2.6 | 5.2 | 0.00 | 0.00 | 0.00 | 60 | 1018.5 |
| 20260902212759 | 90 | 213 | 3.5 | 5.2 | 0.00 | 0.00 | 0.00 | 61 | 1018.6 |
| 20260902212256 | 91 | 193 | 2.6 | 2.6 | 0.00 | 0.00 | 0.00 | 61 | 1018.4 |
| 20260902211752 | 91 | 152 | 0.9 | 2.6 | 0.00 | 0.00 | 0.00 | 61 | 1018.4 |
| 20260902211247 | 91 | 237 | 1.7 | 3.5 | 0.00 | 0.00 | 0.00 | 62 | 1018.5 |
| 20260902210741 | 92 | 154 | 0.9 | 2.6 | 0.00 | 0.00 | 0.00 | 61 | 1018.5 |
| 20260902210236 | 92 | 223 | 0.0 | 3.5 | 0.00 | 0.00 | 0.00 | 60 | 1018.5 |
| 20260902205734 | 91 | 171 | 0.9 | 5.2 | 0.00 | 0.00 | 0.00 | 58 | 1018.7 |
| 20260902205230 | 91 | 271 | 1.7 | 3.5 | 0.00 | 0.00 | 0.00 | 59 | 1018.7 |
| 20260902204725 | 92 | 249 | 1.7 | 2.6 | 0.00 | 0.00 | 0.00 | 58 | 1018.8 |
| 20260902204220 | 92 | 164 | 1.7 | 7.0 | 0.00 | 0.00 | 0.00 | 57 | 1018.6 |
| 20260902203715 | 92 | 253 | 2.6 | 2.6 | 0.00 | 0.00 | 0.00 | 59 | 1018.8 |
| 20260902203209 | 92 | 308 | 0.9 | 3.5 | 0.00 | 0.00 | 0.00 | 60 | 1019.0 |
| 20260902202704 | 91 | 260 | 1.7 | 7.8 | 0.00 | 0.00 | 0.00 | 61 | 1019.0 |
| 20260902202201 | 92 | 235 | 3.5 | 7.0 | 0.00 | 0.00 | 0.00 | 61 | 1019.0 |
| 20260902201657 | 91 | 113 | 3.5 | 7.0 | 0.00 | 0.00 | 0.00 | 60 | 1019.1 |
| 20260902201156 | 91 | 175 | 0.0 | 3.5 | 0.00 | 0.00 | 0.00 | 61 | 1019.1 |
| 20260902200651 | 91 | 279 | 2.6 | 3.5 | 0.00 | 0.00 | 0.00 | 61 | 1019.1 |
| 20260902200147 | 93 | 197 | 2.6 | 6.1 | 0.00 | 0.00 | 0.00 | 61 | 1019.1 |
| 20260902195642 | 92 | 195 | 2.6 | 3.5 | 0.00 | 0.00 | 0.00 | 59 | 1019.3 |
| 20260902195137 | 92 | 290 | 2.6 | 5.2 | 0.00 | 0.00 | 0.00 | 60 | 1019.3 |
| 20260902194635 | 92 | 171 | 1.7 | 7.8 | 0.00 | 0.00 | 0.00 | 62 | 1019.3 |
| 20260902194130 | 92 | 188 | 3.5 | 5.2 | 0.00 | 0.00 | 0.00 | 63 | 1019.3 |
| 20260902193626 | 92 | 231 | 4.3 | 6.1 | 0.00 | 0.00 | 0.00 | 64 | 1019.3 |
| 20260902193121 | 92 | 203 | 0.9 | 2.6 | 0.00 | 0.00 | 0.00 | 62 | 1019.5 |
| 20260902192619 | 91 | 80 | 6.1 | 8.7 | 0.00 | 0.00 | 0.00 | 64 | 1019.4 |
| 20260902192118 | 91 | 200 | 0.9 | 3.5 | 0.00 | 0.00 | 0.00 | 64 | 1019.5 |
| 20260902191613 | 93 | 201 | 1.7 | 2.6 | 0.00 | 0.00 | 0.00 | 62 | 1019.7 |
| 20260902191108 | 93 | 184 | 0.9 | 1.7 | 0.00 | 0.00 | 0.00 | 64 | 1019.7 |
| 20260902190604 | 92 | 200 | 0.9 | 2.6 | 0.00 | 0.00 | 0.00 | 63 | 1019.6 |
| 20260902190058 | 92 | 284 | 1.7 | 3.5 | 0.00 | 0.00 | 0.00 | 63 | 1019.7 |
| 20260902185555 | 92 | 257 | 0.0 | 2.6 | 0.00 | 0.00 | 0.00 | 63 | 1019.8 |
| 20260902185050 | 91 | 99 | 2.6 | 3.5 | 0.00 | 0.00 | 0.00 | 63 | 1019.6 |
| 20260902184545 | 91 | 214 | 2.6 | 5.2 | 0.00 | 0.00 | 0.00 | 64 | 1019.6 |
| 20260902184040 | 91 | 216 | 1.7 | 3.5 | 0.00 | 0.00 | 0.00 | 65 | 1019.8 |
| 20260902183537 | 92 | 206 | 0.9 | 3.5 | 0.00 | 0.00 | 0.00 | 63 | 1019.7 |
| 20260902183033 | 93 | 76 | 4.3 | 6.1 | 0.00 | 0.00 | 0.00 | 60 | 1020.0 |
| 20260902182529 | 92 | 317 | 1.7 | 3.5 | 0.00 | 0.00 | 0.00 | 62 | 1019.7 |
| 20260902182025 | 91 | 207 | 2.6 | 3.5 | 0.00 | 0.00 | 0.00 | 64 | 1020.2 |
| 20260902181520 | 90 | 118 | 1.7 | 5.2 | 0.00 | 0.00 | 0.00 | 65 | 1020.2 |
| 20260902181014 | 91 | 208 | 3.5 | 5.2 | 0.00 | 0.00 | 0.00 | 64 | 1019.9 |
| 20260902180509 | 91 | 243 | 1.7 | 3.5 | 0.00 | 0.00 | 0.00 | 64 | 1019.9 |
| 20260902180007 | 91 | 87 | 1.7 | 2.6 | 0.00 | 0.00 | 0.00 | 64 | 1020.2 |
| 20260902175505 | 90 | 149 | 2.6 | 7.0 | 0.00 | 0.00 | 0.00 | 65 | 1020.2 |
| 20260902175001 | 90 | 301 | 2.6 | 3.5 | 0.00 | 0.00 | 0.00 | 66 | 1020.3 |
| 20260902174457 | 91 | 220 | 2.6 | 5.2 | 0.00 | 0.00 | 0.00 | 62 | 1020.2 |
| 20260902173952 | 91 | 115 | 2.6 | 3.5 | 0.00 | 0.00 | 0.00 | 63 | 1020.4 |
| 20260902173451 | 92 | 6 | 1.7 | 1.7 | 0.00 | 0.00 | 0.00 | 60 | 1020.6 |
| 20260902172947 | 90 | 230 | 1.7 | 7.8 | 0.00 | 0.00 | 0.00 | 63 | 1020.5 |
| 20260902172446 | 90 | 219 | 1.7 | 3.5 | 0.00 | 0.00 | 0.00 | 64 | 1020.5 |
| 20260902171941 | 90 | 128 | 2.6 | 2.6 | 0.00 | 0.00 | 0.00 | 64 | 1020.8 |
| 20260902171437 | 90 | 179 | 0.9 | 5.2 | 0.00 | 0.00 | 0.00 | 65 | 1020.8 |
| 20260902170933 | 90 | 348 | 1.7 | 2.6 | 0.00 | 0.00 | 0.00 | 64 | 1020.6 |
| 20260902170428 | 90 | 219 | 1.7 | 5.2 | 0.00 | 0.00 | 0.00 | 65 | 1020.7 |
| 20260902165923 | 89 | 282 | 0.9 | 5.2 | 0.00 | 0.00 | 0.00 | 65 | 1020.6 |
| 20260902165422 | 90 | 190 | 1.7 | 5.2 | 0.00 | 0.00 | 0.00 | 63 | 1020.9 |
| 20260902164917 | 91 | 209 | 0.9 | 2.6 | 0.00 | 0.00 | 0.00 | 63 | 1020.8 |
| 20260902164412 | 91 | 2 | 0.0 | 3.5 | 0.00 | 0.00 | 0.00 | 62 | 1020.9 |
| 20260902163912 | 90 | 232 | 1.7 | 2.6 | 0.00 | 0.00 | 0.00 | 63 | 1021.0 |
| 20260902163407 | 90 | 290 | 0.9 | 2.6 | 0.00 | 0.00 | 0.00 | 65 | 1020.9 |
| 20260902162904 | 88 | 166 | 1.7 | 2.6 | 0.00 | 0.00 | 0.00 | 67 | 1020.9 |
| 20260902162400 | 88 | 282 | 0.9 | 3.5 | 0.00 | 0.00 | 0.00 | 68 | 1020.9 |
| 20260902161859 | 89 | 202 | 1.7 | 3.5 | 0.00 | 0.00 | 0.00 | 66 | 1020.9 |
| 20260902161355 | 88 | 286 | 2.6 | 5.2 | 0.00 | 0.00 | 0.00 | 67 | 1020.9 |
| 20260902160851 | 89 | 111 | 2.6 | 3.5 | 0.00 | 0.00 | 0.00 | 67 | 1020.7 |
| 20260902160346 | 88 | 151 | 1.7 | 3.5 | 0.00 | 0.00 | 0.00 | 67 | 1020.7 |
| 20260902155844 | 88 | 245 | 0.9 | 3.5 | 0.00 | 0.00 | 0.00 | 69 | 1020.6 |
| 20260902155343 | 88 | 198 | 1.7 | 5.2 | 0.00 | 0.00 | 0.00 | 68 | 1020.7 |
| 20260902154838 | 88 | 142 | 0.9 | 1.7 | 0.00 | 0.00 | 0.00 | 67 | 1020.9 |
| 20260902154334 | 88 | 213 | 1.7 | 2.6 | 0.00 | 0.00 | 0.00 | 67 | 1020.8 |
| 20260902153833 | 88 | 148 | 0.9 | 2.6 | 0.00 | 0.00 | 0.00 | 67 | 1021.0 |
| 20260902153332 | 88 | 195 | 0.9 | 3.5 | 0.00 | 0.00 | 0.00 | 68 | 1020.8 |
| 20260902152828 | 89 | 218 | 1.7 | 2.6 | 0.00 | 0.00 | 0.00 | 67 | 1020.8 |
| 20260902152324 | 88 | 255 | 1.7 | 2.6 | 0.00 | 0.00 | 0.00 | 66 | 1020.8 |
| 20260902151819 | 88 | 154 | 1.7 | 2.6 | 0.00 | 0.00 | 0.00 | 67 | 1020.9 |
| 20260902151315 | 87 | 206 | 1.7 | 1.7 | 0.00 | 0.00 | 0.00 | 68 | 1021.0 |
| 20260902150809 | 87 | 207 | 1.7 | 2.6 | 0.00 | 0.00 | 0.00 | 68 | 1021.0 |
| 20260902150305 | 87 | 229 | 1.7 | 2.6 | 0.00 | 0.00 | 0.00 | 70 | 1020.8 |
| 20260902145804 | 86 | 192 | 0.9 | 2.6 | 0.00 | 0.00 | 0.00 | 71 | 1020.7 |
| 20260902145300 | 87 | 223 | 0.9 | 1.7 | 0.00 | 0.00 | 0.00 | 70 | 1020.9 |
| 20260902144755 | 86 | 205 | 1.7 | 2.6 | 0.00 | 0.00 | 0.00 | 72 | 1020.8 |
| 20260902144251 | 86 | 241 | 0.9 | 1.7 | 0.00 | 0.00 | 0.00 | 72 | 1020.8 |
| 20260902143746 | 85 | 275 | 0.9 | 2.6 | 0.00 | 0.00 | 0.00 | 75 | 1020.7 |
| 20260902143241 | 85 | 187 | 0.9 | 0.9 | 0.00 | 0.00 | 0.00 | 75 | 1020.8 |
| 20260902142736 | 85 | 71 | 0.9 | 2.6 | 0.00 | 0.00 | 0.00 | 75 | 1020.8 |
| 20260902142232 | 84 | 280 | 0.9 | 1.7 | 0.00 | 0.00 | 0.00 | 77 | 1020.9 |
| 20260902141732 | 83 | 262 | 2.6 | 3.5 | 0.00 | 0.00 | 0.00 | 77 | 1020.6 |
| 20260902141228 | 84 | 233 | 2.6 | 2.6 | 0.00 | 0.00 | 0.00 | 77 | 1020.7 |
| 20260902140723 | 82 | 117 | 0.0 | 0.9 | 0.00 | 0.00 | 0.00 | 79 | 1020.7 |
| 20260902140218 | 82 | 117 | 0.9 | 2.6 | 0.00 | 0.00 | 0.00 | 78 | 1020.6 |
| 20260902135717 | 82 | 244 | 1.7 | 2.6 | 0.00 | 0.00 | 0.00 | 80 | 1020.8 |
| 20260902135213 | 0 | 0.0 | 0.0 | 0.00 | 0.00 | 0.00 | 1020.7 | ||
| 20260902134712 | 0 | 0.0 | 0.0 | 0.00 | 0.00 | 0.00 | 1020.8 | ||
| 20260902134208 | 0 | 0.0 | 0.0 | 0.00 | 0.00 | 0.00 | 1020.8 | ||
| 20260902133703 | 0 | 0.0 | 0.0 | 0.00 | 0.00 | 0.00 | 1020.5 | ||
| 20260902133202 | 0 | 0.0 | 0.0 | 0.00 | 0.00 | 0.00 | 1020.7 | ||
| 20260902132653 | 0 | 0.0 | 0.0 | 0.00 | 0.00 | 0.00 | 1020.7 | ||
| 20260902132148 | 0 | 0.0 | 0.0 | 0.00 | 0.00 | 0.00 | 1020.8 | ||
| 20260902131643 | 0 | 0.0 | 0.0 | 0.00 | 0.00 | 0.00 | 1020.9 | ||
| 20260902131139 | 0 | 0.0 | 0.0 | 0.00 | 0.00 | 0.00 | 1020.6 | ||
| 20260902130635 | 76 | 282 | 0.0 | 1.7 | 0.00 | 0.00 | 0.00 | 87 | 1020.7 |
| 20260902130130 | 76 | 282 | 0.0 | 1.7 | 0.00 | 0.00 | 0.00 | 87 | 1020.7 |
| 20260902125625 | 0 | 0.0 | 0.0 | 0.00 | 0.00 | 0.00 | 1020.7 | ||
| 20260902125120 | 0 | 0.0 | 0.0 | 0.00 | 0.00 | 0.00 | 1020.7 | ||
| 20260902124617 | 0 | 0.0 | 0.0 | 0.00 | 0.00 | 0.00 | 1020.5 | ||
| 20260902124117 | 0 | 0.0 | 0.0 | 0.00 | 0.00 | 0.00 | 1020.6 | ||
| 20260902123613 | 0 | 0.0 | 0.0 | 0.00 | 0.00 | 0.00 | 1020.5 | ||
| 20260902123108 | 0 | 0.0 | 0.0 | 0.00 | 0.00 | 0.00 | 1020.6 | ||
| 20260902122607 | 0 | 0.0 | 0.0 | 0.00 | 0.00 | 0.00 | 1020.5 | ||
| 20260902122103 | 0 | 0.0 | 0.0 | 0.00 | 0.00 | 0.00 | 1020.5 | ||
| 20260902121602 | 0 | 0.0 | 0.0 | 0.00 | 0.00 | 0.00 | 1020.5 | ||
| 20260902121057 | 0 | 0.0 | 0.0 | 0.00 | 0.00 | 0.00 | 1020.5 | ||
| 20260902120553 | 0 | 0.0 | 0.0 | 0.00 | 0.00 | 0.00 | 1020.4 | ||
| 20260902120049 | 0 | 0.0 | 0.0 | 0.00 | 0.00 | 0.00 | 1020.7 | ||
| 20260902115544 | 0 | 0.0 | 0.0 | 0.00 | 0.00 | 0.00 | 1020.5 | ||
| 20260902115041 | 0 | 0.0 | 0.0 | 0.00 | 0.00 | 0.00 | 1020.3 | ||
| 20260902114536 | 0 | 0.0 | 0.0 | 0.00 | 0.00 | 0.00 | 1020.4 | ||
| 20260902114031 | 0 | 0.0 | 0.0 | 0.00 | 0.00 | 0.00 | 1020.3 | ||
| 20260902113527 | 0 | 0.0 | 0.0 | 0.00 | 0.00 | 0.00 | 1020.2 | ||
| 20260902113021 | 0 | 0.0 | 0.0 | 0.00 | 0.00 | 0.00 | 1020.0 | ||
| 20260902112517 | 0 | 0.0 | 0.0 | 0.00 | 0.00 | 0.00 | 1020.2 | ||
| 20260902112014 | 0 | 0.0 | 0.0 | 0.00 | 0.00 | 0.00 | 1020.0 | ||
| 20260902111509 | 0 | 0.0 | 0.0 | 0.00 | 0.00 | 0.00 | 1020.0 | ||
| 20260902111005 | 0 | 0.0 | 0.0 | 0.00 | 0.00 | 0.00 | 1019.8 | ||
| 20260902110501 | 0 | 0.0 | 0.0 | 0.00 | 0.00 | 0.00 | 1019.9 | ||
| 20260902105955 | 0 | 0.0 | 0.0 | 0.00 | 0.00 | 0.00 | 1019.9 | ||
| 20260902105450 | 0 | 0.0 | 0.0 | 0.00 | 0.00 | 0.00 | 1019.6 | ||
| 20260902104944 | 76 | 222 | 0.0 | 0.9 | 0.00 | 0.00 | 0.00 | 88 | 1019.7 |
| 20260902104440 | 76 | 222 | 0.0 | 0.9 | 0.00 | 0.00 | 0.00 | 88 | 1019.6 |
| 20260902103935 | 76 | 246 | 0.9 | 1.7 | 0.00 | 0.00 | 0.00 | 88 | 1019.7 |
| 20260902103430 | 76 | 246 | 0.9 | 1.7 | 0.00 | 0.00 | 0.00 | 88 | 1019.6 |
| 20260902102925 | 0 | 0.0 | 0.0 | 0.00 | 0.00 | 0.00 | 1019.5 | ||
| 20260902102422 | 0 | 0.0 | 0.0 | 0.00 | 0.00 | 0.00 | 1019.5 | ||
| 20260902101918 | 0 | 0.0 | 0.0 | 0.00 | 0.00 | 0.00 | 1019.6 | ||
| 20260902101413 | 0 | 0.0 | 0.0 | 0.00 | 0.00 | 0.00 | 1019.6 | ||
| 20260902100912 | 0 | 0.0 | 0.0 | 0.00 | 0.00 | 0.00 | 1019.7 | ||
| 20260902100412 | 0 | 0.0 | 0.0 | 0.00 | 0.00 | 0.00 | 1019.6 | ||
| 20260902095906 | 0 | 0.0 | 0.0 | 0.00 | 0.00 | 0.00 | 1019.6 | ||
| 20260902095401 | 0 | 0.0 | 0.0 | 0.00 | 0.00 | 0.00 | 1019.7 | ||
| 20260902094900 | 0 | 0.0 | 0.0 | 0.00 | 0.00 | 0.00 | 1019.8 | ||
| 20260902094357 | 0 | 0.0 | 0.0 | 0.00 | 0.00 | 0.00 | 1019.9 | ||
| 20260902093856 | 0 | 0.0 | 0.0 | 0.00 | 0.00 | 0.00 | 1019.7 | ||
| 20260902093351 | 0 | 0.0 | 0.0 | 0.00 | 0.00 | 0.00 | 1019.8 | ||
| 20260902092850 | 0 | 0.0 | 0.0 | 0.00 | 0.00 | 0.00 | 1019.8 | ||
| 20260902092346 | 0 | 0.0 | 0.0 | 0.00 | 0.00 | 0.00 | 1019.9 | ||
| 20260902091840 | 0 | 0.0 | 0.0 | 0.00 | 0.00 | 0.00 | 1020.0 | ||
| 20260902091336 | 0 | 0.0 | 0.0 | 0.00 | 0.00 | 0.00 | 1019.7 | ||
| 20260902090833 | 0 | 0.0 | 0.0 | 0.00 | 0.00 | 0.00 | 1019.7 | ||
| 20260902090332 | 0 | 0.0 | 0.0 | 0.00 | 0.00 | 0.00 | 1019.8 | ||
| 20260902085831 | 0 | 0.0 | 0.0 | 0.00 | 0.00 | 0.00 | 1019.8 | ||
| 20260902085326 | 0 | 0.0 | 0.0 | 0.00 | 0.00 | 0.00 | 1019.7 | ||
| 20260902084822 | 0 | 0.0 | 0.0 | 0.00 | 0.00 | 0.00 | 1019.9 | ||
| 20260902084319 | 0 | 0.0 | 0.0 | 0.00 | 0.00 | 0.00 | 1019.7 | ||
| 20260902083813 | 0 | 0.0 | 0.0 | 0.00 | 0.00 | 0.00 | 1019.8 | ||
| 20260902083313 | 0 | 0.0 | 0.0 | 0.00 | 0.00 | 0.00 | 1019.8 | ||
| 20260902082808 | 0 | 0.0 | 0.0 | 0.00 | 0.00 | 0.00 | 1019.6 | ||
| 20260902082309 | 0 | 0.0 | 0.0 | 0.00 | 0.00 | 0.00 | 1019.7 | ||
| 20260902081801 | 0 | 0.0 | 0.0 | 0.00 | 0.00 | 0.00 | 1019.8 | ||
| 20260902081256 | 0 | 0.0 | 0.0 | 0.00 | 0.00 | 0.00 | 1019.7 | ||
| 20260902080751 | 0 | 0.0 | 0.0 | 0.00 | 0.00 | 0.00 | 1019.8 | ||
| 20260902080248 | 0 | 0.0 | 0.0 | 0.00 | 0.00 | 0.00 | 1019.8 | ||
| 20260902075747 | 0 | 0.0 | 0.0 | 0.00 | 0.00 | 0.00 | 1019.7 | ||
| 20260902075243 | 0 | 0.0 | 0.0 | 0.00 | 0.00 | 0.00 | 1019.6 | ||
| 20260902074738 | 0 | 0.0 | 0.0 | 0.00 | 0.00 | 0.00 | 1019.5 | ||
| 20260902074234 | 0 | 0.0 | 0.0 | 0.00 | 0.00 | 0.00 | 1019.5 | ||
| 20260902073729 | 0 | 0.0 | 0.0 | 0.00 | 0.00 | 0.00 | 1019.6 |